OAO 3 (COPERNICUS)

Last updated on Sun Jun 21 2026 00:02:14 GMT+0000 (Coordinated Universal Time)

1 06153U 72065A 26171.47049711 .00000202 00000+0 45684-4 0 9999 2 06153 35.0063 71.6957 0007324 279.7806 246.6682 14.60061684861223
UTC large
Height (km)
Speed (km/s)
/
Latitude / Longitude
Inclination (degrees)
Orbital Period (minutes)
Azimuth
Elevation
Range (km)
Doppler Factor

Next 0 passes for location: London (51.5072 / 0.1276)

No passes found over London.
OAO 3 (COPERNICUS)